Location: Newark
(39.2833°N, 16.3333°E)
Time: 17:16:00
(UTC+00:00)

Envisat - Pass Details

Date: 30 October 2019
Orbit: 764 x 766 km, 98.1° (Epoch: 17 November)

Event Time Altitude Azimuth Distance (km) Brightness Sun altitude
Rises 17:56:07 0° 198° (SSW) 3,217 6.4 -23.7°
Reaches altitude 10° 17:58:48 10° 212° (SSW) 2,296 5.8 -24.2°
Maximum altitude 18:02:53 24° 266° (W) 1,534 5.3 -25.0°
Drops below altitude 10° 18:07:00 10° 320° (NW) 2,308 6.0 -25.8°
Sets 18:09:44 0° 334° (NNW) 3,239 6.6 -26.3°
